User: anonymous   Login
Location: Unspecified
(0.0000°N, 0.0000°E)
Time: 02:18:55
(UTC+00:00)
Language:

SENTINEL 2A - Orbit

View from above orbital plane
View from above orbital plane
View from above satellite
View from above satellite

Ground track
Ground track

The orbit data is extracted from the following two-line orbital elements,

1 40697U 15028A   19046.71096993  .00000003  00000-0  17664-4 0  9997
2 40697  98.5675 122.9232 0001269  77.6941 282.4389 14.30818809190717
Epoch (UTC): 15 February 2019 17:03:47
Eccentricity: 0.0001269
inclination: 98.5675°
perigee height: 788 km
apogee height: 790 km
right ascension of ascending node: 122.9232°
argument of perigee: 77.6941°
revolutions per day: 14.30818809
mean anomaly at epoch: 282.4389°
orbit number at epoch: 19071

The dashed part of the orbit path shows where the satellite is in the earth's shadow,  

DLR